Year,Month,Day,Hour,Minute,Value (Times are PST for temperature in C)
2015,11,23,00,00,4.40
2015,11,23,00,01,4.40
2015,11,23,00,02,4.40
2015,11,23,00,03,4.40
2015,11,23,00,04,4.40
2015,11,23,00,05,4.40
2015,11,23,00,06,4.40
2015,11,23,00,07,4.40
2015,11,23,00,08,4.40
2015,11,23,00,09,4.40
2015,11,23,00,10,4.30
2015,11,23,00,11,4.30
2015,11,23,00,12,4.30
2015,11,23,00,13,4.30
2015,11,23,00,14,4.30
2015,11,23,00,15,4.30
2015,11,23,00,16,4.30
2015,11,23,00,17,4.30
2015,11,23,00,18,4.30
2015,11,23,00,19,4.30
2015,11,23,00,20,4.30
2015,11,23,00,21,4.30
2015,11,23,00,22,4.30
2015,11,23,00,23,4.30
2015,11,23,00,24,4.30
2015,11,23,00,25,4.30
2015,11,23,00,26,4.30
2015,11,23,00,27,4.30
2015,11,23,00,28,4.30
2015,11,23,00,29,4.30
2015,11,23,00,30,4.30
2015,11,23,00,31,4.30
2015,11,23,00,32,4.30
2015,11,23,00,33,4.30
2015,11,23,00,34,4.30
2015,11,23,00,35,4.30
2015,11,23,00,36,4.30
2015,11,23,00,37,4.30
2015,11,23,00,38,4.30
2015,11,23,00,39,4.30
2015,11,23,00,40,4.30
2015,11,23,00,41,4.30
2015,11,23,00,42,4.30
2015,11,23,00,43,4.30
2015,11,23,00,44,4.30
2015,11,23,00,45,4.30
2015,11,23,00,46,4.40
2015,11,23,00,47,4.40
2015,11,23,00,48,4.40
2015,11,23,00,49,4.40
2015,11,23,00,50,4.40
2015,11,23,00,51,4.40
2015,11,23,00,52,4.40
2015,11,23,00,53,4.40
2015,11,23,00,54,4.40
2015,11,23,00,55,4.30
2015,11,23,00,56,4.30
2015,11,23,00,57,4.30
2015,11,23,00,58,4.30
2015,11,23,00,59,4.30
2015,11,23,01,00,4.30
2015,11,23,01,01,4.30
2015,11,23,01,02,4.30
2015,11,23,01,03,4.30
2015,11,23,01,04,4.30
2015,11,23,01,05,4.30
2015,11,23,01,06,4.30
2015,11,23,01,07,4.30
2015,11,23,01,08,4.30
2015,11,23,01,09,4.30
2015,11,23,01,10,4.30
2015,11,23,01,11,4.30
2015,11,23,01,12,4.30
2015,11,23,01,13,4.30
2015,11,23,01,14,4.30
2015,11,23,01,15,4.30
2015,11,23,01,16,4.30
2015,11,23,01,17,4.30
2015,11,23,01,18,4.30
2015,11,23,01,19,4.30
2015,11,23,01,20,4.30
2015,11,23,01,21,4.30
2015,11,23,01,22,4.30
2015,11,23,01,23,4.30
2015,11,23,01,24,4.30
2015,11,23,01,25,4.30
2015,11,23,01,26,4.40
2015,11,23,01,27,4.30
2015,11,23,01,28,4.30
2015,11,23,01,29,4.30
2015,11,23,01,30,4.30
2015,11,23,01,31,4.30
2015,11,23,01,32,4.30
2015,11,23,01,33,4.30
2015,11,23,01,34,4.30
2015,11,23,01,35,4.30
2015,11,23,01,36,4.30
2015,11,23,01,37,4.30
2015,11,23,01,38,4.30
2015,11,23,01,39,4.30
2015,11,23,01,40,4.30
2015,11,23,01,41,4.30
2015,11,23,01,42,4.30
2015,11,23,01,43,4.30
2015,11,23,01,44,4.30
2015,11,23,01,45,4.30
2015,11,23,01,46,4.30
2015,11,23,01,47,4.30
2015,11,23,01,48,4.30
2015,11,23,01,49,4.30
2015,11,23,01,50,4.30
2015,11,23,01,51,4.30
2015,11,23,01,52,4.30
2015,11,23,01,53,4.30
2015,11,23,01,54,4.30
2015,11,23,01,55,4.30
2015,11,23,01,56,4.30
2015,11,23,01,57,4.30
2015,11,23,01,58,4.30
2015,11,23,01,59,4.30
2015,11,23,02,00,4.30
2015,11,23,02,01,4.30
2015,11,23,02,02,4.30
2015,11,23,02,03,4.30
2015,11,23,02,04,4.30
2015,11,23,02,05,4.30
2015,11,23,02,06,4.30
2015,11,23,02,07,4.30
2015,11,23,02,08,4.30
2015,11,23,02,09,4.30
2015,11,23,02,10,4.30
2015,11,23,02,11,4.30
2015,11,23,02,12,4.30
2015,11,23,02,13,4.30
2015,11,23,02,14,4.30
2015,11,23,02,15,4.30
2015,11,23,02,16,4.30
2015,11,23,02,17,4.20
2015,11,23,02,18,4.30
2015,11,23,02,19,4.30
2015,11,23,02,20,4.20
2015,11,23,02,21,4.20
2015,11,23,02,22,4.20
2015,11,23,02,23,4.20
2015,11,23,02,24,4.20
2015,11,23,02,25,4.20
2015,11,23,02,26,4.20
2015,11,23,02,27,4.20
2015,11,23,02,28,4.20
2015,11,23,02,29,4.20
2015,11,23,02,30,4.20
2015,11,23,02,31,4.20
2015,11,23,02,32,4.30
2015,11,23,02,33,4.30
2015,11,23,02,34,4.30
2015,11,23,02,35,4.30
2015,11,23,02,36,4.30
2015,11,23,02,37,4.30
2015,11,23,02,38,4.30
2015,11,23,02,39,4.30
2015,11,23,02,40,4.30
2015,11,23,02,41,4.30
2015,11,23,02,42,4.30
2015,11,23,02,43,4.30
2015,11,23,02,44,4.30
2015,11,23,02,45,4.30
2015,11,23,02,46,4.30
2015,11,23,02,47,4.30
2015,11,23,02,48,4.30
2015,11,23,02,49,4.30
2015,11,23,02,50,4.20
2015,11,23,02,51,4.20
2015,11,23,02,52,4.20
2015,11,23,02,53,4.20
2015,11,23,02,54,4.20
2015,11,23,02,55,4.20
2015,11,23,02,56,4.20
2015,11,23,02,57,4.20
2015,11,23,02,58,4.20
2015,11,23,02,59,4.20
2015,11,23,03,00,4.20
2015,11,23,03,01,4.20
2015,11,23,03,02,4.20
2015,11,23,03,03,4.20
2015,11,23,03,04,4.20
2015,11,23,03,05,4.20
2015,11,23,03,06,4.20
2015,11,23,03,07,4.20
2015,11,23,03,08,4.20
2015,11,23,03,09,4.20
2015,11,23,03,10,4.20
2015,11,23,03,11,4.20
2015,11,23,03,12,4.20
2015,11,23,03,13,4.20
2015,11,23,03,14,4.20
2015,11,23,03,15,4.20
2015,11,23,03,16,4.20
2015,11,23,03,17,4.20
2015,11,23,03,18,4.20
2015,11,23,03,19,4.20
2015,11,23,03,20,4.20
2015,11,23,03,21,4.20
2015,11,23,03,22,4.20
2015,11,23,03,23,4.20
2015,11,23,03,24,4.20
2015,11,23,03,25,4.20
2015,11,23,03,26,4.20
2015,11,23,03,27,4.20
2015,11,23,03,28,4.20
2015,11,23,03,29,4.20
2015,11,23,03,30,4.20
2015,11,23,03,31,4.20
2015,11,23,03,32,4.20
2015,11,23,03,33,4.20
2015,11,23,03,34,4.20
2015,11,23,03,35,4.20
2015,11,23,03,36,4.20
2015,11,23,03,37,4.20
2015,11,23,03,38,4.20
2015,11,23,03,39,4.20
2015,11,23,03,40,4.20
2015,11,23,03,41,4.20
2015,11,23,03,42,4.20
2015,11,23,03,43,4.20
2015,11,23,03,44,4.20
2015,11,23,03,45,4.20
2015,11,23,03,46,4.20
2015,11,23,03,47,4.20
2015,11,23,03,48,4.30
2015,11,23,03,49,4.20
2015,11,23,03,50,4.20
2015,11,23,03,51,4.30
2015,11,23,03,52,4.30
2015,11,23,03,53,4.30
2015,11,23,03,54,4.20
2015,11,23,03,55,4.20
2015,11,23,03,56,4.20
2015,11,23,03,57,4.20
2015,11,23,03,58,4.20
2015,11,23,03,59,4.20
2015,11,23,04,00,4.20
2015,11,23,04,01,4.20
2015,11,23,04,02,4.30
2015,11,23,04,03,4.30
2015,11,23,04,04,4.30
2015,11,23,04,05,4.30
2015,11,23,04,06,4.30
2015,11,23,04,07,4.30
2015,11,23,04,08,4.30
2015,11,23,04,09,4.30
2015,11,23,04,10,4.30
2015,11,23,04,11,4.20
2015,11,23,04,12,4.20
2015,11,23,04,13,4.20
2015,11,23,04,14,4.20
2015,11,23,04,15,4.20
2015,11,23,04,16,4.20
2015,11,23,04,17,4.20
2015,11,23,04,18,4.20
2015,11,23,04,19,4.20
2015,11,23,04,20,4.20
2015,11,23,04,21,4.20
2015,11,23,04,22,4.20
2015,11,23,04,23,4.20
2015,11,23,04,24,4.20
2015,11,23,04,25,4.20
2015,11,23,04,26,4.20
2015,11,23,04,27,4.20
2015,11,23,04,28,4.20
2015,11,23,04,29,4.20
2015,11,23,04,30,4.20
2015,11,23,04,31,4.20
2015,11,23,04,32,4.20
2015,11,23,04,33,4.20
2015,11,23,04,34,4.20
2015,11,23,04,35,4.10
2015,11,23,04,36,4.20
2015,11,23,04,37,4.10
2015,11,23,04,38,4.10
2015,11,23,04,39,4.10
2015,11,23,04,40,4.10
2015,11,23,04,41,4.10
2015,11,23,04,42,4.10
2015,11,23,04,43,4.10
2015,11,23,04,44,4.10
2015,11,23,04,45,4.10
2015,11,23,04,46,4.10
2015,11,23,04,47,4.10
2015,11,23,04,48,4.10
2015,11,23,04,49,4.10
2015,11,23,04,50,4.10
2015,11,23,04,51,4.10
2015,11,23,04,52,4.10
2015,11,23,04,53,4.10
2015,11,23,04,54,4.10
2015,11,23,04,55,4.10
2015,11,23,04,56,4.10
2015,11,23,04,57,4.10
2015,11,23,04,58,4.10
2015,11,23,04,59,4.10
2015,11,23,05,00,4.10
2015,11,23,05,01,4.10
2015,11,23,05,02,4.10
2015,11,23,05,03,4.10
2015,11,23,05,04,4.00
2015,11,23,05,05,4.00
2015,11,23,05,06,4.00
2015,11,23,05,07,4.00
2015,11,23,05,08,4.00
2015,11,23,05,09,4.00
2015,11,23,05,10,4.00
2015,11,23,05,11,4.00
2015,11,23,05,12,4.00
2015,11,23,05,13,4.00
2015,11,23,05,14,4.00
2015,11,23,05,15,4.00
2015,11,23,05,16,4.00
2015,11,23,05,17,4.00
2015,11,23,05,18,4.00
2015,11,23,05,19,4.00
2015,11,23,05,20,4.00
2015,11,23,05,21,4.00
2015,11,23,05,22,4.00
2015,11,23,05,23,4.10
2015,11,23,05,24,4.10
2015,11,23,05,25,4.10
2015,11,23,05,26,4.20
2015,11,23,05,27,4.20
2015,11,23,05,28,4.20
2015,11,23,05,29,4.20
2015,11,23,05,30,4.30
2015,11,23,05,31,4.30
2015,11,23,05,32,4.30
2015,11,23,05,33,4.30
2015,11,23,05,34,4.40
2015,11,23,05,35,4.40
2015,11,23,05,36,4.40
2015,11,23,05,37,4.40
2015,11,23,05,38,4.40
2015,11,23,05,39,4.40
2015,11,23,05,40,4.50
2015,11,23,05,41,4.50
2015,11,23,05,42,4.50
2015,11,23,05,43,4.50
2015,11,23,05,44,4.60
2015,11,23,05,45,4.60
2015,11,23,05,46,4.60
2015,11,23,05,47,4.60
2015,11,23,05,48,4.60
2015,11,23,05,49,4.60
2015,11,23,05,50,4.60
2015,11,23,05,51,4.70
2015,11,23,05,52,4.70
2015,11,23,05,53,4.70
2015,11,23,05,54,4.70
2015,11,23,05,55,4.70
2015,11,23,05,56,4.70
2015,11,23,05,57,4.70
2015,11,23,05,58,4.70
2015,11,23,05,59,4.70
2015,11,23,06,00,4.70
2015,11,23,06,01,4.70
2015,11,23,06,02,4.70
2015,11,23,06,03,4.70
2015,11,23,06,04,4.70
2015,11,23,06,05,4.70
2015,11,23,06,06,4.70
2015,11,23,06,07,4.70
2015,11,23,06,08,4.80
2015,11,23,06,09,4.70
2015,11,23,06,10,4.70
2015,11,23,06,11,4.70
2015,11,23,06,12,4.80
2015,11,23,06,13,4.70
2015,11,23,06,14,4.80
2015,11,23,06,15,4.70
2015,11,23,06,16,4.70
2015,11,23,06,17,4.80
2015,11,23,06,18,4.80
2015,11,23,06,19,4.80
2015,11,23,06,20,4.80
2015,11,23,06,21,4.80
2015,11,23,06,22,4.80
2015,11,23,06,23,4.80
2015,11,23,06,24,4.80
2015,11,23,06,25,4.80
2015,11,23,06,26,4.80
2015,11,23,06,27,4.80
2015,11,23,06,28,4.80
2015,11,23,06,29,4.80
2015,11,23,06,30,4.80
2015,11,23,06,31,4.80
2015,11,23,06,32,4.80
2015,11,23,06,33,4.80
2015,11,23,06,34,4.80
2015,11,23,06,35,4.80
2015,11,23,06,36,4.80
2015,11,23,06,37,4.80
2015,11,23,06,38,4.80
2015,11,23,06,39,4.80
2015,11,23,06,40,4.80
2015,11,23,06,41,4.80
2015,11,23,06,42,4.80
2015,11,23,06,43,4.80
2015,11,23,06,44,4.80
2015,11,23,06,45,4.80
2015,11,23,06,46,4.80
2015,11,23,06,47,4.80
2015,11,23,06,48,4.80
2015,11,23,06,49,4.80
2015,11,23,06,50,4.80
2015,11,23,06,51,4.80
2015,11,23,06,52,4.80
2015,11,23,06,53,4.90
2015,11,23,06,54,4.80
2015,11,23,06,55,4.90
2015,11,23,06,56,4.90
2015,11,23,06,57,4.90
2015,11,23,06,58,4.90
2015,11,23,06,59,4.90
2015,11,23,07,00,4.90
2015,11,23,07,01,4.90
2015,11,23,07,02,4.90
2015,11,23,07,03,5.00
2015,11,23,07,04,5.00
2015,11,23,07,05,5.00
2015,11,23,07,06,5.00
2015,11,23,07,07,5.00
2015,11,23,07,08,5.10
2015,11,23,07,09,5.10
2015,11,23,07,10,5.10
2015,11,23,07,11,5.10
2015,11,23,07,12,5.10
2015,11,23,07,13,5.10
2015,11,23,07,14,5.10
2015,11,23,07,15,5.10
2015,11,23,07,16,5.10
2015,11,23,07,17,5.20
2015,11,23,07,18,5.20
2015,11,23,07,19,5.20
2015,11,23,07,20,5.20
2015,11,23,07,21,5.20
2015,11,23,07,22,5.20
2015,11,23,07,23,5.30
2015,11,23,07,24,5.30
2015,11,23,07,25,5.30
2015,11,23,07,26,5.30
2015,11,23,07,27,5.30
2015,11,23,07,28,5.30
2015,11,23,07,29,5.30
2015,11,23,07,30,5.30
2015,11,23,07,31,5.30
2015,11,23,07,32,5.40
2015,11,23,07,33,5.40
2015,11,23,07,34,5.40
2015,11,23,07,35,5.40
2015,11,23,07,36,5.40
2015,11,23,07,37,5.40
2015,11,23,07,38,5.50
2015,11,23,07,39,5.50
2015,11,23,07,40,5.50
2015,11,23,07,41,5.50
2015,11,23,07,42,5.50
2015,11,23,07,43,5.60
2015,11,23,07,44,5.60
2015,11,23,07,45,5.60
2015,11,23,07,46,5.60
2015,11,23,07,47,5.60
2015,11,23,07,48,5.60
2015,11,23,07,49,5.70
2015,11,23,07,50,5.70
2015,11,23,07,51,5.70
2015,11,23,07,52,5.70
2015,11,23,07,53,5.70
2015,11,23,07,54,5.70
2015,11,23,07,55,5.70
2015,11,23,07,56,5.70
2015,11,23,07,57,5.70
2015,11,23,07,58,5.70
2015,11,23,07,59,5.70
2015,11,23,08,00,5.70
2015,11,23,08,01,5.70
2015,11,23,08,02,5.70
2015,11,23,08,03,5.70
2015,11,23,08,04,5.70
2015,11,23,08,05,5.70
2015,11,23,08,06,5.70
2015,11,23,08,07,5.70
2015,11,23,08,08,5.70
2015,11,23,08,09,5.70
2015,11,23,08,10,5.70
2015,11,23,08,11,5.70
2015,11,23,08,12,5.70
2015,11,23,08,13,5.70
2015,11,23,08,14,5.70
2015,11,23,08,15,5.70
2015,11,23,08,16,5.80
2015,11,23,08,17,5.80
2015,11,23,08,18,5.80
2015,11,23,08,19,5.80
2015,11,23,08,20,5.80
2015,11,23,08,21,5.80
2015,11,23,08,22,5.80
2015,11,23,08,23,5.80
2015,11,23,08,24,5.80
2015,11,23,08,25,5.80
2015,11,23,08,26,5.80
2015,11,23,08,27,5.80
2015,11,23,08,28,5.80
2015,11,23,08,29,5.80
2015,11,23,08,30,5.80
2015,11,23,08,31,5.80
2015,11,23,08,32,5.80
2015,11,23,08,33,5.80
2015,11,23,08,34,5.80
2015,11,23,08,35,5.80
2015,11,23,08,36,5.80
2015,11,23,08,37,5.80
2015,11,23,08,38,5.80
2015,11,23,08,39,5.80
2015,11,23,08,40,5.80
2015,11,23,08,41,5.80
2015,11,23,08,42,5.80
2015,11,23,08,43,5.80
2015,11,23,08,44,5.80
2015,11,23,08,45,5.80
2015,11,23,08,46,5.80
2015,11,23,08,47,5.80
2015,11,23,08,48,5.80
2015,11,23,08,49,5.80
2015,11,23,08,50,5.80
2015,11,23,08,51,5.80
2015,11,23,08,52,5.80
2015,11,23,08,53,5.80
2015,11,23,08,54,5.80
2015,11,23,08,55,5.80
2015,11,23,08,56,5.80
2015,11,23,08,57,5.80
2015,11,23,08,58,5.80
2015,11,23,08,59,5.80
2015,11,23,09,00,5.80
2015,11,23,09,01,5.80
2015,11,23,09,02,5.80
2015,11,23,09,03,5.80
2015,11,23,09,04,5.80
2015,11,23,09,05,5.80
2015,11,23,09,06,5.80
2015,11,23,09,07,5.70
2015,11,23,09,08,5.80
2015,11,23,09,09,5.70
2015,11,23,09,10,5.70
2015,11,23,09,11,5.70
2015,11,23,09,12,5.70
2015,11,23,09,13,5.80
2015,11,23,09,14,5.80
2015,11,23,09,15,5.70
2015,11,23,09,16,5.70
2015,11,23,09,17,5.70
2015,11,23,09,18,5.70
2015,11,23,09,19,5.70
2015,11,23,09,20,5.70
2015,11,23,09,21,5.70
2015,11,23,09,22,5.70
2015,11,23,09,23,5.70
2015,11,23,09,24,5.70
2015,11,23,09,25,5.70
2015,11,23,09,26,5.70
2015,11,23,09,27,5.70
2015,11,23,09,28,5.70
2015,11,23,09,29,5.70
2015,11,23,09,30,5.70
2015,11,23,09,31,5.70
2015,11,23,09,32,5.70
2015,11,23,09,33,5.70
2015,11,23,09,34,5.70
2015,11,23,09,35,5.70
2015,11,23,09,36,5.70
2015,11,23,09,37,5.70
2015,11,23,09,38,5.70
2015,11,23,09,39,5.60
2015,11,23,09,40,5.60
2015,11,23,09,41,5.60
2015,11,23,09,42,5.60
2015,11,23,09,43,5.60
2015,11,23,09,44,5.60
2015,11,23,09,45,5.60
2015,11,23,09,46,5.60
2015,11,23,09,47,5.60
2015,11,23,09,48,5.60
2015,11,23,09,49,5.50
2015,11,23,09,50,5.50
2015,11,23,09,51,5.50
2015,11,23,09,52,5.50
2015,11,23,09,53,5.50
2015,11,23,09,54,5.50
2015,11,23,09,55,5.50
2015,11,23,09,56,5.50
2015,11,23,09,57,5.50
2015,11,23,09,58,5.50
2015,11,23,09,59,5.50
2015,11,23,10,00,5.50
2015,11,23,10,01,5.50
2015,11,23,10,02,5.50
2015,11,23,10,03,5.50
2015,11,23,10,04,5.50
2015,11,23,10,05,5.40
2015,11,23,10,06,5.40
2015,11,23,10,07,5.40
2015,11,23,10,08,5.40
2015,11,23,10,09,5.40
2015,11,23,10,10,5.40
2015,11,23,10,11,5.40
2015,11,23,10,12,5.40
2015,11,23,10,13,5.40
2015,11,23,10,14,5.30
2015,11,23,10,15,5.30
2015,11,23,10,16,5.30
2015,11,23,10,17,5.30
2015,11,23,10,18,5.30
2015,11,23,10,19,5.30
2015,11,23,10,20,5.30
2015,11,23,10,21,5.30
2015,11,23,10,22,5.30
2015,11,23,10,23,5.30
2015,11,23,10,24,5.30
2015,11,23,10,25,5.30
2015,11,23,10,26,5.20
2015,11,23,10,27,5.20
2015,11,23,10,28,5.20
2015,11,23,10,29,5.20
2015,11,23,10,30,5.20
2015,11,23,10,31,5.20
2015,11,23,10,32,5.20
2015,11,23,10,33,5.20
2015,11,23,10,34,5.20
2015,11,23,10,35,5.20
2015,11,23,10,36,5.20
2015,11,23,10,37,5.20
2015,11,23,10,38,5.10
2015,11,23,10,39,5.10
2015,11,23,10,40,5.10
2015,11,23,10,41,5.10
2015,11,23,10,42,5.10
2015,11,23,10,43,5.10
2015,11,23,10,44,5.10
2015,11,23,10,45,5.10
2015,11,23,10,46,5.10
2015,11,23,10,47,5.10
2015,11,23,10,48,5.10
2015,11,23,10,49,5.10
2015,11,23,10,50,5.10
2015,11,23,10,51,5.00
2015,11,23,10,52,5.00
2015,11,23,10,53,5.00
2015,11,23,10,54,5.00
2015,11,23,10,55,5.00
2015,11,23,10,56,5.00
2015,11,23,10,57,5.00
2015,11,23,10,58,5.00
2015,11,23,10,59,5.00
2015,11,23,11,00,5.00
2015,11,23,11,01,5.00
2015,11,23,11,02,5.00
2015,11,23,11,03,5.00
2015,11,23,11,04,5.00
2015,11,23,11,05,5.00
2015,11,23,11,06,5.00
2015,11,23,11,07,5.00
2015,11,23,11,08,5.00
2015,11,23,11,09,5.00
2015,11,23,11,10,5.00
2015,11,23,11,11,5.00
2015,11,23,11,12,4.90
2015,11,23,11,13,5.00
2015,11,23,11,14,5.00
2015,11,23,11,15,5.00
2015,11,23,11,16,5.00
2015,11,23,11,17,5.00
2015,11,23,11,18,5.00
2015,11,23,11,19,5.00
2015,11,23,11,20,4.90
2015,11,23,11,21,4.90
2015,11,23,11,22,4.90
2015,11,23,11,23,4.90
2015,11,23,11,24,4.90
2015,11,23,11,25,4.90
2015,11,23,11,26,4.90
2015,11,23,11,27,4.90
2015,11,23,11,28,4.90
2015,11,23,11,29,4.90
2015,11,23,11,30,4.90
2015,11,23,11,31,4.90
2015,11,23,11,32,4.90
2015,11,23,11,33,4.90
2015,11,23,11,34,4.90
2015,11,23,11,35,4.90
2015,11,23,11,36,4.90
2015,11,23,11,37,4.90
2015,11,23,11,38,4.90
2015,11,23,11,39,4.90
2015,11,23,11,40,4.90
2015,11,23,11,41,4.90
2015,11,23,11,42,4.90
2015,11,23,11,43,4.90
2015,11,23,11,44,4.90
2015,11,23,11,45,4.90
2015,11,23,11,46,4.90
2015,11,23,11,47,4.90
2015,11,23,11,48,4.90
2015,11,23,11,49,4.90
2015,11,23,11,50,4.90
2015,11,23,11,51,4.90
2015,11,23,11,52,4.90
2015,11,23,11,53,4.90
2015,11,23,11,54,4.90
2015,11,23,11,55,4.90
2015,11,23,11,56,4.90
2015,11,23,11,57,4.90
2015,11,23,11,58,4.90
2015,11,23,11,59,4.90
2015,11,23,19,38,3.00
2015,11,23,19,39,3.00
2015,11,23,19,40,3.00
2015,11,23,19,41,3.00
2015,11,23,19,42,3.00
2015,11,23,19,43,3.00
2015,11,23,19,44,3.00
2015,11,23,19,45,3.00
2015,11,23,19,46,2.90
2015,11,23,19,47,3.00
2015,11,23,19,48,3.00
2015,11,23,19,49,2.90
2015,11,23,19,50,2.90
2015,11,23,19,51,3.00
2015,11,23,19,52,3.00
2015,11,23,19,53,2.90
2015,11,23,19,54,3.00
2015,11,23,19,55,3.00
2015,11,23,19,56,3.00
2015,11,23,19,57,3.00
2015,11,23,19,58,3.00
2015,11,23,19,59,3.00
2015,11,23,20,00,3.00
2015,11,23,20,01,3.00
2015,11,23,20,02,3.00
2015,11,23,20,03,3.00
2015,11,23,20,04,3.00
2015,11,23,20,05,3.00
2015,11,23,20,06,3.00
2015,11,23,20,07,3.00
2015,11,23,20,08,3.00
2015,11,23,20,09,3.00
2015,11,23,20,10,3.00
2015,11,23,20,11,3.00
2015,11,23,20,12,3.00
2015,11,23,20,13,3.00
2015,11,23,20,14,3.00
2015,11,23,20,15,3.00
2015,11,23,20,16,2.90
2015,11,23,20,17,3.00
2015,11,23,20,18,3.00
2015,11,23,20,19,2.90
2015,11,23,20,20,2.90
2015,11,23,20,21,2.90
2015,11,23,20,22,2.90
2015,11,23,20,23,2.90
2015,11,23,20,24,2.90
2015,11,23,20,25,3.00
2015,11,23,20,26,2.90
2015,11,23,20,27,3.00
2015,11,23,20,28,2.90
2015,11,23,20,29,3.00
2015,11,23,20,30,3.00
2015,11,23,20,31,2.90
2015,11,23,20,32,3.00
2015,11,23,20,33,2.90
2015,11,23,20,34,2.90
2015,11,23,20,35,3.00
2015,11,23,20,36,3.00
2015,11,23,20,37,3.00
2015,11,23,20,38,2.90
2015,11,23,20,39,3.00
2015,11,23,20,40,3.00
2015,11,23,20,41,3.00
2015,11,23,20,42,3.00
2015,11,23,20,43,3.00
2015,11,23,20,44,3.00
2015,11,23,20,45,3.00
2015,11,23,20,46,3.00
2015,11,23,20,47,3.00
2015,11,23,20,48,3.00
2015,11,23,20,49,3.00
2015,11,23,20,50,3.00
2015,11,23,20,51,3.00
2015,11,23,20,52,3.00
2015,11,23,20,53,3.00
2015,11,23,20,54,3.00
2015,11,23,20,55,3.00
2015,11,23,20,56,3.00
2015,11,23,20,57,3.00
2015,11,23,20,58,3.10
2015,11,23,20,59,3.10
2015,11,23,21,00,3.10
2015,11,23,21,01,3.10
2015,11,23,21,02,3.10
2015,11,23,21,03,3.10
2015,11,23,21,04,3.10
2015,11,23,21,05,3.10
2015,11,23,21,06,3.10
2015,11,23,21,07,3.10
2015,11,23,21,08,3.10
2015,11,23,21,09,3.10
2015,11,23,21,10,3.10
2015,11,23,21,11,3.10
2015,11,23,21,12,3.10
2015,11,23,21,13,3.10
2015,11,23,21,14,3.10
2015,11,23,21,15,3.10
2015,11,23,21,16,3.10
2015,11,23,21,17,3.10
2015,11,23,21,18,3.10
2015,11,23,21,19,3.10
2015,11,23,21,20,3.10
2015,11,23,21,21,3.10
2015,11,23,21,22,3.10
2015,11,23,21,23,3.10
2015,11,23,21,24,3.10
2015,11,23,21,25,3.10
2015,11,23,21,26,3.10
2015,11,23,21,27,3.00
2015,11,23,21,28,3.10
2015,11,23,21,29,3.00
2015,11,23,21,30,3.00
2015,11,23,21,31,3.00
2015,11,23,21,32,3.00
2015,11,23,21,33,3.00
2015,11,23,21,34,3.00
2015,11,23,21,35,3.00
2015,11,23,21,36,3.00
2015,11,23,21,37,3.00
2015,11,23,21,38,3.00
2015,11,23,21,39,3.00
2015,11,23,21,40,3.00
2015,11,23,21,41,3.00
2015,11,23,21,42,3.00
2015,11,23,21,43,3.00
2015,11,23,21,44,3.00
2015,11,23,21,45,3.00
2015,11,23,21,46,3.00
2015,11,23,21,47,3.00
2015,11,23,21,48,3.00
2015,11,23,21,49,3.00
2015,11,23,21,50,3.00
2015,11,23,21,51,2.90
2015,11,23,21,52,2.90
2015,11,23,21,53,2.90
2015,11,23,21,54,2.90
2015,11,23,21,55,2.90
2015,11,23,21,56,2.90
2015,11,23,21,57,2.90
2015,11,23,21,58,2.90
2015,11,23,21,59,2.90
2015,11,23,22,00,2.90
2015,11,23,22,01,2.90
2015,11,23,22,02,2.90
2015,11,23,22,03,2.90
2015,11,23,22,04,2.90
2015,11,23,22,05,2.90
2015,11,23,22,06,2.90
2015,11,23,22,07,2.90
2015,11,23,22,08,2.90
2015,11,23,22,09,2.90
2015,11,23,22,10,2.90
2015,11,23,22,11,2.90
2015,11,23,22,12,2.90
2015,11,23,22,13,2.90
2015,11,23,22,14,2.90
2015,11,23,22,15,2.90
2015,11,23,22,16,2.90
2015,11,23,22,17,2.90
2015,11,23,22,18,2.90
2015,11,23,22,19,2.90
2015,11,23,22,20,2.90
2015,11,23,22,21,2.90
2015,11,23,22,22,2.90
2015,11,23,22,23,2.90
2015,11,23,22,24,2.90
2015,11,23,22,25,2.90
2015,11,23,22,26,2.90
2015,11,23,22,27,2.90
2015,11,23,22,28,2.90
2015,11,23,22,29,2.90
2015,11,23,22,30,2.90
2015,11,23,22,31,2.90
2015,11,23,22,32,2.90
2015,11,23,22,33,2.90
2015,11,23,22,34,2.90
2015,11,23,22,35,2.90
2015,11,23,22,36,2.90
2015,11,23,22,37,2.90
2015,11,23,22,38,2.90
2015,11,23,22,39,2.90
2015,11,23,22,40,2.90
2015,11,23,22,41,2.90
2015,11,23,22,42,2.90
2015,11,23,22,43,2.90
2015,11,23,22,44,2.90
2015,11,23,22,45,2.90
2015,11,23,22,46,2.90
2015,11,23,22,47,2.90
2015,11,23,22,48,2.90
2015,11,23,22,49,2.90
2015,11,23,22,50,2.90
2015,11,23,22,51,2.90
2015,11,23,22,52,2.90
2015,11,23,22,53,2.90
2015,11,23,22,54,2.90
2015,11,23,22,55,2.90
2015,11,23,22,56,2.90
2015,11,23,22,57,2.90
2015,11,23,22,58,2.90
2015,11,23,22,59,2.90
2015,11,23,23,00,2.90
2015,11,23,23,01,2.90
2015,11,23,23,02,2.90
2015,11,23,23,03,2.90
2015,11,23,23,04,2.90
2015,11,23,23,05,2.90
2015,11,23,23,06,2.90
2015,11,23,23,07,2.90
2015,11,23,23,08,2.90
2015,11,23,23,09,2.90
2015,11,23,23,10,2.90
2015,11,23,23,11,2.90
2015,11,23,23,12,2.90
2015,11,23,23,13,2.90
2015,11,23,23,14,2.90
2015,11,23,23,15,2.90
2015,11,23,23,16,2.90
2015,11,23,23,17,2.90
2015,11,23,23,18,2.90
2015,11,23,23,19,2.90
2015,11,23,23,20,2.90
2015,11,23,23,21,2.90
2015,11,23,23,22,2.90
2015,11,23,23,23,2.90
2015,11,23,23,24,2.90
2015,11,23,23,25,2.90
2015,11,23,23,26,2.90
2015,11,23,23,27,2.90
2015,11,23,23,28,2.80
2015,11,23,23,29,2.80
2015,11,23,23,30,2.80
2015,11,23,23,31,2.80
2015,11,23,23,32,2.80
2015,11,23,23,33,2.80
2015,11,23,23,34,2.80
2015,11,23,23,35,2.80
2015,11,23,23,36,2.80
2015,11,23,23,37,2.80
2015,11,23,23,38,2.70
2015,11,23,23,39,2.70
2015,11,23,23,40,2.70
2015,11,23,23,41,2.70
2015,11,23,23,42,2.70
2015,11,23,23,43,2.70
2015,11,23,23,44,2.70
2015,11,23,23,45,2.70
2015,11,23,23,46,2.70
2015,11,23,23,47,2.70
2015,11,23,23,48,2.60
2015,11,23,23,49,2.60
2015,11,23,23,50,2.60
2015,11,23,23,51,2.60
2015,11,23,23,52,2.60
2015,11,23,23,53,2.60
2015,11,23,23,54,2.60
2015,11,23,23,55,2.60
2015,11,23,23,56,2.60
2015,11,23,23,57,2.60
2015,11,23,23,58,2.60
2015,11,23,23,59,2.60
